AO-07 1 07530U 74089B 19150.40585035 -.00000042 00000-0 17014-4 0 9993 2 07530 101.7423 118.2655 0012445 26.1596 91.2225 12.53638267 38104 UO-11 1 14781U 84021B 19150.87651029 .00000040 00000-0 11068-4 0 9994 2 14781 97.6119 176.4836 0009195 31.0785 329.0972 14.83086945895977 LO-19 1 20442U 90005G 19150.81578824 -.00000023 00000-0 77144-5 0 9999 2 20442 98.6476 92.8485 0011246 200.0193 160.0551 14.32925848533677 HUBBLE 1 20580U 90037B 19150.84152876 .00000393 00000-0 12994-4 0 9995 2 20580 28.4704 336.5846 0002548 283.2317 182.1894 15.09229844398032 MET-2/21 1 22782U 93055A 19150.22712153 .00000030 00000-0 13820-4 0 9993 2 22782 82.5482 178.5206 0021159 230.6403 198.8934 13.83817410300176 AO-27 1 22825U 93061C 19150.88879562 -.00000010 00000-0 14256-4 0 9991 2 22825 98.9023 139.0976 0009364 57.8349 302.3739 14.30059312339263 IO-26 1 22826U 93061D 19150.89484302 .00000003 00000-0 19027-4 0 9999 2 22826 98.8963 139.0977 0009758 47.5575 312.6430 14.30392888339463 FO-29 1 24278U 96046B 19150.39791420 -.00000027 00000-0 11815-4 0 9999 2 24278 98.5343 306.4281 0349359 290.1246 66.2629 13.53091265125192 NOAA-15 1 25338U 98030A 19150.47041188 .00000073 00000-0 49516-4 0 9999 2 25338 98.7478 171.7702 0009357 302.2961 57.7312 14.25910770 94507 GO-32 1 25397U 98043D 19149.87056385 -.00000031 00000-0 55419-5 0 9990 2 25397 098.6877 090.2559 0002428 091.3294 268.8163 14.23665820084831 ISS 1 25544U 98067A 19150.98415631 -.00001302 00000-0 -14032-4 0 9995 2 25544 51.6415 86.6753 0007629 354.6727 97.1709 15.51154174172587 NO-44 1 26931U 01043C 19150.83356167 -.00000057 00000-0 98733-5 0 9992 2 26931 67.0526 52.3437 0006442 279.7314 80.3059 14.30542998922274 SO-50 1 27607U 02058C 19150.36639792 -.00000013 00000-0 19021-4 0 9990 2 27607 64.5543 108.6800 0081937 260.2470 98.9372 14.75548784884183 CO-55 1 27844U 03031E 19150.02413123 .00000042 00000-0 38759-4 0 9996 2 27844 98.6840 158.5317 0011121 88.6159 271.6293 14.22178257825492 CO-57 1 27848U 03031J 19150.01066779 .00000033 00000-0 35014-4 0 9991 2 27848 98.6918 159.0141 0010993 98.7160 261.5263 14.21773250825345 RS-22 1 27939U 03042A 19150.74261635 .00000090 00000-0 24763-4 0 9994 2 27939 98.0372 286.9313 0014055 124.8067 235.4472 14.66781716837761 NOAA-18 1 28654U 05018A 19150.22620114 .00000066 00000-0 60802-4 0 9995 2 28654 99.0974 196.9022 0013520 229.3250 130.6746 14.12426990722767 CO-58 1 28895U 05043F 19149.88836108 .00000075 00000-0 23176-4 0 9995 2 28895 097.9563 293.3017 0017935 057.3623 302.9307 14.63663210724356 Falconsat-3 1 30776U 07006E 19150.25595007 .00001663 00000-0 47631-4 0 9996 2 30776 35.4341 214.7119 0003311 290.4077 69.6294 15.36120955677695 CO-65 1 32785U 08021C 19150.32265653 .00000181 00000-0 25148-4 0 9998 2 32785 97.5493 150.9510 0012303 333.9938 26.0660 14.88302637600808 AAUSAT2 1 32788U 08021F 19150.03499007 .00000153 00000-0 19100-4 0 9991 2 32788 97.4975 166.6358 0010133 265.3866 94.6197 14.94707691601988 DO-64 1 32789U 08021G 19150.69350714 .00001384 00000-0 96599-4 0 9999 2 32789 97.4655 200.9313 0012235 182.6843 177.4321 15.06910197604105 CO-66 1 32791U 08021J 19149.83672752 .00000350 00000-0 40885-4 0 9994 2 32791 97.5279 156.4407 0012060 308.7663 51.2478 14.90808769601154 RS-30 1 32953U 08025A 19150.73084799 .00000020 00000-0 75656-4 0 9995 2 32953 82.5006 156.5572 0019355 166.4872 193.6730 12.43089719499952 PRISM 1 33493U 09002B 19150.80857778 .00000403 00000-0 40921-4 0 9996 2 33493 98.1232 71.0467 0013471 244.1973 115.7858 14.96639824562325 NOAA-19 1 33591U 09005A 19150.49081184 .00000075 00000-0 65827-4 0 9990 2 33591 99.1791 141.1505 0015010 73.6610 286.6210 14.12354556531208 TISAT-1 1 36799U 10035E 19150.08741630 .00000319 00000-0 38322-4 0 9993 2 36799 98.1533 301.5929 0013149 145.2230 214.9849 14.91090077481849 JUGNU 1 37839U 11058B 19150.18235194 .00000288 00000-0 11813-4 0 9990 2 37839 19.9606 93.0790 0019191 112.3098 17.6552 14.12651184394494 SRMSAT 1 37841U 11058D 19150.34552505 .00000299 00000-0 19276-4 0 9992 2 37841 19.9705 148.4666 0011754 345.2144 147.7093 14.10632582393954 AO-71 1 37854U 11061E 19150.16627892 .00001182 00000-0 67914-4 0 9996 2 37854 101.7041 38.3828 0161036 123.8104 237.8559 15.06364743414053 HRBE 1 37855U 11061F 19150.25872457 .00000725 00000-0 44213-4 0 9995 2 37855 101.7172 35.8827 0173769 134.3774 227.1821 15.05368341413854 ALMASAT-1 1 38078U 12006B 19150.89292807 .00022523 41714-5 13113-3 0 9994 2 38078 69.4274 320.1007 0166195 290.6682 187.7357 15.62222580394551 HORYU-2 1 38340U 12025D 19150.65810385 .00000150 00000-0 29932-4 0 9995 2 38340 98.3304 188.6761 0011596 178.0617 182.0638 14.75712000378357 RS-40 1 38735U 12041C 19150.70629033 .00000022 00000-0 86049-4 0 9995 2 38735 82.4773 239.9151 0015765 277.2688 82.6601 12.42578483310194 BEESAT-3 1 39135U 13015F 19149.90547489 .00000928 00000-0 55894-4 0 9995 2 39135 064.8673 102.5592 0018137 324.5831 035.4089 15.17422121336857 BEESAT-2 1 39136U 13015G 19150.26469348 .00000838 00000-0 52257-4 0 9994 2 39136 64.8687 105.1644 0018342 305.3430 54.5981 15.16858372337225 ZACUBE-1 1 39417U 13066B 19150.85630858 .00000185 00000-0 29434-4 0 9999 2 39417 97.5631 165.4161 0060594 95.6588 265.1539 14.81106274298257 TRITON-1 1 39427U 13066M 19150.84512621 .00000154 00000-0 32809-4 0 9992 2 39427 97.6746 129.3893 0112655 225.3241 133.8744 14.67831903295570 GOMX-1 1 39430U 13066Q 19150.76588689 .00000123 00000-0 31693-4 0 9990 2 39430 97.7445 108.5662 0150444 314.4123 44.4840 14.59244608293844 LO-74 1 39440U 13066AA 19150.22499734 .00000182 00000-0 32076-4 0 9995 2 39440 97.6017 149.8125 0081122 147.2653 213.3622 14.75844720297104 AO-73 1 39444U 13066AE 19150.05700634 .00000212 00000-0 32279-4 0 9993 2 39444 97.5612 166.5876 0059755 92.3586 268.4471 14.81922503297026 SPROUT 1 39770U 14029E 19150.72697619 .00000513 00000-0 62918-4 0 9994 2 39770 97.8837 254.1470 0009656 139.5718 220.6259 14.87316413272019 DUCHIFAT-1 1 40021U 14033M 19150.34561655 .00000393 00000-0 45955-4 0 9996 2 40021 97.9241 74.8754 0014255 111.0880 249.1863 14.90612822268668 NANOSATCBR1 1 40024U 14033Q 19150.83236606 .00000169 00000-0 23487-4 0 9995 2 40024 97.9141 72.8342 0013582 112.6559 247.6096 14.89829398268637 EO-79 1 40025U 14033R 19150.81611171 .00000169 00000-0 23960-4 0 9994 2 40025 97.9067 70.5300 0013726 118.1335 242.1271 14.88931271268512 DTUSAT-2 1 40030U 14033W 19150.73978303 .00000162 00000-0 23451-4 0 9992 2 40030 97.8986 68.6457 0013223 114.1229 246.1372 14.88525160268431 EO-80 1 40032U 14033Y 19150.34125757 .00000190 00000-0 26440-4 0 9990 2 40032 97.8993 68.2496 0013160 116.0279 244.2294 14.88467034268365 ANTELSAT 1 40034U 14033AA 19150.15626797 .00000164 00000-0 31687-4 0 9991 2 40034 97.7637 18.1613 0059169 158.1435 202.2318 14.74093730265794 VELOX-1 1 40057U 14034E 19150.85189210 .00000233 00000-0 40211-4 0 9998 2 40057 98.2318 273.5360 0009777 298.1734 61.8492 14.77653484264987 DAURIA DX 1 1 40071U 14037C 19150.77575028 .00000046 00000-0 13390-4 0 9994 2 40071 98.4237 303.6965 0007399 291.1066 68.9357 14.81265403264455 UKUBE-1 1 40074U 14037F 19150.81885528 .00000206 00000-0 31919-4 0 9996 2 40074 98.4353 311.7087 0002839 292.8900 67.2048 14.84039890264856 HODOYOSHI-1 1 40299U 14070B 19150.80515531 .00000455 00000-0 22049-4 0 9995 2 40299 97.3481 230.9497 0014489 106.0606 41.7500 15.23342974253396 CHUBUSAT-1 1 40300U 14070C 19150.80157124 .00000499 00000-0 24694-4 0 9994 2 40300 97.3265 225.4609 0020917 119.3004 21.0265 15.22058468253148 QSAT-EOS 1 40301U 14070D 19150.75735056 .00001335 00000-0 54423-4 0 9998 2 40301 97.3263 228.3352 0027512 104.6358 9.8029 15.25860744253403 FIREBIRD FU3 1 40377U 15003B 19150.84235035 .00001194 00000-0 50948-4 0 9991 2 40377 99.1119 127.2265 0127837 152.8294 207.9702 15.18687081239069 FIREBIRD FU4 1 40378U 15003C 19150.89549043 .00001145 00000-0 49023-4 0 9992 2 40378 99.1122 127.3657 0128060 152.5451 208.2622 15.18692818239071 GRIFEX 1 40379U 15003D 19150.84524996 .00000709 00000-0 34585-4 0 9990 2 40379 99.1111 121.4886 0135626 170.7981 189.5780 15.15410178238737 NO-84 1 40654U 15025D 19150.32768411 .00004084 00000 0 64181-4 0 6301 2 40654 54.9878 261.0500 0135048 276.8610 81.7137 15.46666791109454 NO-83 1 40655U 15025E 19150.32697117 .00054025 11467-4 29888-3 0 7552 2 40655 54.9660 150.3705 0061298 346.9142 13.0380 15.77433832110660 DEORBITSAIL 1 40719U 15032E 19150.27735210 .00000338 00000-0 55433-4 0 9993 2 40719 97.9109 42.4945 0016973 13.8233 346.3439 14.76722739209395 NUDT-PHONESAT 1 40900U 15049B 19150.78246519 .00001402 00000-0 63108-4 0 9999 2 40900 97.4381 160.3035 0011104 250.8941 194.7245 15.22707030204781 XW-2A 1 40903U 15049E 19150.70659236 .00001423 00000-0 35608-4 0 9995 2 40903 97.3396 193.3615 0012581 208.0813 292.8663 15.41771508207321 XW-2C 1 40906U 15049H 19150.71951459 .00000475 00000-0 28457-4 0 9991 2 40906 97.4670 153.1121 0013198 265.9393 181.0628 15.15648408204124 XW-2D 1 40907U 15049J 19150.70409378 .00000214 00000-0 14653-4 0 9993 2 40907 97.4650 152.7752 0012408 262.6515 209.5847 15.15831512204131 LILACSAT-2 1 40908U 15049K 19150.74704273 .00000091 00000-0 86595-5 0 9998 2 40908 97.4782 151.7042 0014219 268.9326 139.4224 15.13783719203941 XW-2E 1 40909U 15049L 19150.72044345 .00000719 00000-0 38923-4 0 9992 2 40909 97.4600 155.5391 0011776 257.8957 190.7783 15.17737473204314 XW-2F 1 40910U 15049M 19150.74523361 .00000752 00000-0 41096-4 0 9998 2 40910 97.4624 154.7579 0013054 254.6376 192.5550 15.17251840204144 XW-2B 1 40911U 15049N 19150.73108529 .00000622 00000-0 36038-4 0 9999 2 40911 97.4676 153.4465 0012406 263.5915 182.4580 15.15765402204031 DCBB 1 40912U 15049P 19150.73902118 .00000854 00000-0 43324-4 0 9999 2 40912 97.4501 158.3401 0013389 235.8166 210.7847 15.19557037204436 TW-1C 1 40926U 15051B 19150.73937528 .00010327 00000-0 15322-3 0 9992 2 40926 97.1372 196.9408 0010053 85.7734 12.8093 15.55349042207215 TW-1A 1 40928U 15051D 19150.72431480 .00002485 00000-0 62826-4 0 9997 2 40928 97.1473 182.4491 0012333 135.4424 318.7502 15.40657701206257 IO-86 1 40931U 15052B 19148.74838342 .00000586 00000-0 -81216-5 0 9995 2 40931 5.9975 206.1759 0018637 224.2731 135.6745 14.76604099198162 LQSat 1 40958U 15057A 19150.81621834 -.00000092 00000-0 -65575-5 0 9999 2 40958 97.8988 220.5192 0016962 304.5884 55.3718 14.73078544196024 AO-85 1 40967U 15058D 19150.34823282 .00000072 00000 0 26115-4 0 7033 2 40967 64.7777 217.1161 0202561 208.8810 150.0954 14.75943728104883 ATHENOXAT-1 1 41168U 15077C 19149.21202146 .00001585 00000-0 48469-4 0 9996 2 41168 14.9891 6.1540 0011540 169.7503 190.3054 15.13591679190876 ChubuSat-2 1 41338U 16012B 19150.39562538 .00000283 00000-0 15267-4 0 9994 2 41338 31.0031 267.3991 0013945 272.3707 87.5332 15.00145631180010 ChubuSat-3 1 41339U 16012C 19150.70002951 .00000218 00000-0 10159-4 0 9991 2 41339 31.0100 263.5825 0013716 283.2870 76.6236 15.00321499180054 Horyu-4 1 41340U 16012D 19150.35648500 .00000396 00000-0 23315-4 0 9995 2 41340 31.0048 257.3622 0014170 297.3186 62.6007 15.01254728180102 OUFTI-1 1 41458U 16025C 19149.91942593 .00001703 00000-0 89776-4 0 9994 2 41458 098.1010 235.7581 0167883 063.8685 297.9703 15.05764191169599 e-st@r-II 1 41459U 16025D 19150.79527139 .00000869 00000-0 48323-4 0 9993 2 41459 98.0993 236.3510 0168997 62.1541 299.6743 15.05406349169702 AAUSAT4 1 41460U 16025E 19150.79437694 .00001382 00000-0 72822-4 0 9993 2 41460 98.0940 237.5424 0158976 55.0258 306.5791 15.07270414169823 LO-87 1 41557U 16033B 19150.64960735 .00000982 00000-0 39577-4 0 9995 2 41557 97.4175 238.2606 0014046 12.5143 347.6442 15.27164935167181 NuSat2 1 41558U 16033C 19150.83870120 .00000975 00000-0 37158-4 0 9990 2 41558 97.4200 239.4335 0013119 13.5084 346.6505 15.29069790167250 Lapan A3 1 41603U 16040E 19150.81782630 .00000193 00000-0 12182-4 0 9997 2 41603 97.3617 209.9951 0015010 103.0095 7.9336 15.19710255162877 Swayam 1 41607U 16040J 19150.15562439 .00001230 00000-0 54783-4 0 9997 2 41607 97.3667 212.5661 0015257 99.4883 260.8079 15.23237787162907 Pratham 1 41783U 16059A 19150.17563320 .00000038 00000-0 16520-4 0 9996 2 41783 98.0687 210.1868 0034981 85.8393 274.6805 14.62992546142692 AlSat 1N 1 41789U 16059G 19150.72761133 .00000033 00000-0 15232-4 0 9999 2 41789 98.0706 212.6782 0029623 73.7566 286.6890 14.64240575142874 ScatSat 1 41790U 16059H 19150.20336928 .00000003 00000-0 11881-4 0 9997 2 41790 98.2107 195.7532 0019543 105.3314 255.0042 14.50879258141509 TY-1 1 41844U 16066D 19150.86386755 .00000598 00000-0 27419-4 0 9993 2 41844 97.4047 158.4583 0013361 253.7174 225.8229 15.24247016141829 Pegasus-1 1 41846U 16066F 19149.76371528 .00000195 00000-0 41197-4 0 9996 2 41846 98.7129 189.6402 0366445 297.7338 58.7129 14.37558075133697 CAS-2T 1 41847U 16066G 19150.75201953 .00000028 00000-0 15663-4 0 9996 2 41847 98.7072 191.1734 0364829 291.3752 64.8875 14.37983485134273 EO-88 1 42017U 17008BX 19150.15027631 .00001164 00000-0 48832-4 0 9992 2 42017 97.4040 217.4447 0004910 226.5402 133.5428 15.25467889126947 ZA-AeroSat 1 42713U 98067LU 19150.79202054 .02568668 12087-4 59233-3 0 9990 2 42713 51.6177 357.6450 0012426 274.6305 85.3297 16.28911043116487 NJUST-1 1 42722U 98067MB 19150.84217892 .00119876 16884-4 29550-3 0 9991 2 42722 51.6307 8.6328 0005349 163.2883 288.5881 15.95793986115425 nSIGHT1 1 42726U 98067MF 19150.88196404 .00016863 00000-0 13795-3 0 9999 2 42726 51.6378 44.8767 0005870 104.2242 255.9408 15.70663028114865 Aoxiang-1 1 42735U 98067MQ 19150.78713868 .00257774 39882-4 43409-3 0 9994 2 42735 51.6277 5.0382 0003329 207.2238 233.8518 16.02267979116591 CAS-4B 1 42759U 17034B 19150.81135472 -.00000006 00000-0 13158-4 0 9998 2 42759 43.0201 334.4744 0010020 135.4474 308.8545 15.09573258107982 CAS-4A 1 42761U 17034D 19150.77321534 .00000159 00000-0 23245-4 0 9998 2 42761 43.0203 334.2331 0010359 135.6404 296.4697 15.09651779107971 UCLSat 1 42765U 17036A 19150.15133163 .00000896 00000-0 41395-4 0 9999 2 42765 97.3523 208.5775 0009934 303.3684 56.6602 15.22695368107494 NIUSat 1 42766U 17036B 19150.16361869 .00000710 00000-0 34992-4 0 9997 2 42766 97.3522 207.0622 0014023 291.2404 68.7334 15.21067022107269 LituanicaSAT 2 1 42768U 17036D 19150.13059885 .00001495 00000-0 66984-4 0 9995 2 42768 97.3559 208.1489 0013398 291.1468 68.8337 15.22713064107334 Aalto 1 1 42775U 17036L 19150.78514616 .00000616 00000-0 30541-4 0 9996 2 42775 97.3509 207.9908 0012340 289.0414 70.9485 15.21305019107337 URSA MAIOR 1 42776U 17036M 19150.15560495 .00000632 00000-0 31164-4 0 9994 2 42776 97.3518 207.5171 0012184 291.5409 68.4528 15.21433478107245 Max Valier Sat 1 42778U 17036P 19150.39668543 .00000881 00000-0 41582-4 0 9996 2 42778 97.3557 208.4867 0010710 295.6936 64.3194 15.21977904107303 Pegasus 1 42784U 17036V 19150.82972251 .00000828 00000-0 38773-4 0 9994 2 42784 97.3528 209.0692 0010497 300.8763 59.1441 15.22445789107398 NUDATSat 1 42787U 17036Y 19150.90505460 .00001130 00000-0 50429-4 0 9999 2 42787 97.3540 209.7871 0009995 299.8276 60.1967 15.23383690107284 SUCHAI 1 1 42788U 17036Z 19150.11911821 .00001041 00000-0 47390-4 0 9999 2 42788 97.3533 208.6592 0010090 303.1033 56.9234 15.22850728107373 SKCUBE 1 42789U 17036AA 19149.73935378 .00001110 00000-0 50493-4 0 9994 2 42789 097.3529 208.2343 0009974 304.8281 055.2017 15.22754580107236 VZLUSAT 1 1 42790U 17036AB 19149.70954449 .00001460 00000-0 64304-4 0 9997 2 42790 097.3544 208.6201 0009490 304.1943 055.8394 15.23384171107255 VENTA 1 1 42791U 17036AC 19149.91075646 .00000887 00000-0 40912-4 0 9995 2 42791 097.3528 208.4535 0009629 304.8510 055.1821 15.22771650107256 Robusta 1B 1 42792U 17036AD 19150.72366540 .00001022 00000-0 46511-4 0 9996 2 42792 97.3530 209.3403 0009511 301.8985 58.1326 15.22919565107406 D-SAT 1 42794U 17036AF 19150.34657986 .00000415 00000-0 41517-4 0 9999 2 42794 97.5411 195.8995 0125958 205.4918 154.0056 14.91084233105451 TechnoSat 1 42829U 17042E 19150.75332529 .00000006 00000-0 59437-5 0 9990 2 42829 97.5664 44.4204 0015580 119.8291 240.4479 14.90966078102117 TOMSK-TPU 120 1 42910U 98067MZ 19150.78031979 .00045751 00000-0 21812-3 0 9995 2 42910 51.6370 27.7852 0006062 105.4214 10.1747 15.82342935102030 TANYUSHA 1 1 42911U 98067NA 19150.22774484 .00123905 16971-4 35817-3 0 9996 2 42911 51.6242 20.9290 0003834 142.3503 318.9351 15.92807401102052 TANYUSHA 2 1 42912U 98067NB 19150.71115046 .00070226 00000-0 26119-3 0 9998 2 42912 51.6351 23.6352 0003710 113.3320 352.0436 15.87371395102089 TNS 0-2 1 42914U 98067ND 19150.86848227 .00044576 00000-0 20717-3 0 9997 2 42914 51.6355 27.9719 0004311 113.2252 246.9206 15.82913101102033 QIKCOM-1 1 42983U 98067NF 19150.59890923 .00002902 00000-0 43433-4 0 9991 2 42983 51.6401 76.0761 0004764 59.6247 300.5216 15.58722256 90364 AO-91 1 43017U 17073E 19150.78392251 .00000225 00000-0 23505-4 0 9994 2 43017 97.7237 72.8833 0257265 219.7644 138.4463 14.78532956 82462 EcAMSat 1 43019U 98067NG 19150.72475837 .00005639 00000-0 71826-4 0 9997 2 43019 51.6410 70.9556 0005184 43.3840 316.7561 15.61029497172764 PICSAT 1 43132U 18004X 19150.72234321 .00001036 00000-0 46402-4 0 9996 2 43132 97.4893 218.5761 0008733 330.1004 29.9733 15.23519538 76612 AO-92 1 43137U 18004AC 19150.84400433 .00000749 00000-0 34453-4 0 9996 2 43137 97.4883 218.6874 0008358 332.0751 28.0036 15.23421562 76621 TianYi 2 1 43155U 18008A 19150.75186060 .00000978 00000-0 61955-4 0 9998 2 43155 97.4867 223.6889 0018741 33.9485 121.6105 15.11111829 74964 Zhou Enlai 1 43156U 18008B 19150.85023257 .00000296 00000-0 21707-4 0 9992 2 43156 97.4906 223.6836 0015720 33.1886 75.0335 15.10608818 74956 TianYi 6 1 43158U 18008D 19150.82957760 .00000425 00000-0 29819-4 0 9992 2 43158 97.4843 223.1687 0015024 29.4508 108.6723 15.10205508 74912 S-Net G 1 43186U 18014G 19150.30354429 .00000504 00000-0 49194-4 0 9992 2 43186 97.7116 59.0380 0012808 73.1105 287.1519 14.96637966 72230 S-Net H 1 43187U 18014H 19150.30337396 .00000517 00000-0 50333-4 0 9998 2 43187 97.7114 59.0267 0012806 73.1053 287.1572 14.96638111 72235 S-Net J 1 43188U 18014J 19150.16944660 .00000542 00000-0 52583-4 0 9998 2 43188 97.7117 58.9108 0012806 73.5931 286.6697 14.96637484 72212 S-Net K 1 43189U 18014K 19150.16977523 .00000523 00000-0 50872-4 0 9991 2 43189 97.7114 58.8926 0012805 73.4191 286.8436 14.96637464 70762 FMN 1 1 43192U 18015A 19150.42624010 .00001276 00000-0 55136-4 0 9999 2 43192 97.3960 278.4199 0016800 7.1004 353.0467 15.24196158 73383 Shaonian Xing 1 43199U 18015H 19150.24696372 .00000934 00000-0 40480-4 0 9992 2 43199 97.3741 277.4094 0017977 18.3391 341.8492 15.24728158 73406 1KUNS-PF 1 43466U 98067NP 19150.25742675 .00021616 00000-0 21612-3 0 9998 2 43466 51.6377 73.0237 0001990 76.8971 283.2246 15.65528031 59875 UBAKUSAT 1 43467U 98067NQ 19150.41822380 .00012262 00000-0 14120-3 0 9992 2 43467 51.6374 75.5950 0002630 26.0487 334.0639 15.62415393 59866 Irazu 1 43468U 98067NR 19150.21637924 .00029623 00000-0 26501-3 0 9994 2 43468 51.6371 70.4821 0002195 83.0468 277.0779 15.68099311159892 EnduroSat One 1 43551U 98067NZ 19150.37470070 .00015679 00000-0 17898-3 0 9996 2 43551 51.6379 78.3023 0006928 75.6697 284.5066 15.62375078 50054 EQUISat 1 43552U 98067PA 19149.38027277 .00011219 00000-0 13564-3 0 9995 2 43552 51.6388 84.4273 0007211 70.5411 289.6361 15.61227715 49846 UiTMSat 1 1 43589U 98067PD 19150.21651885 .00015767 00000-0 18752-3 0 9993 2 43589 51.6362 80.9686 0006593 80.5186 279.6552 15.61304008 45702 Maya 1 1 43590U 98067PE 19149.25177188 .00012537 00000-0 15047-3 0 9992 2 43590 51.6365 85.7791 0006758 76.5397 283.6349 15.61293451 45482 Bhutan 1 1 43591U 98067PF 19150.20322731 .00015973 00000-0 18932-3 0 9999 2 43591 51.6375 80.9005 0006840 81.3553 278.8215 15.61380254 45632 SiriusSat 1 1 43595U 98067PG 19150.37179336 .00013237 00000-0 16266-3 0 9991 2 43595 51.6366 81.2578 0004385 48.9007 311.2365 15.60625137 44829 SiriusSat 2 1 43596U 98067PH 19150.40018272 .00013851 00000-0 17094-3 0 9999 2 43596 51.6377 81.4784 0004911 48.1717 311.9695 15.60464494 44828 Tanusha-3 1 43597U 98067PJ 19150.35179282 .00017586 00000-0 20409-3 0 9996 2 43597 51.6361 80.3506 0004687 61.6518 298.4948 15.61858846 44831 SurfSat 1 43614U 18070B 19150.78748449 .00001980 00000-0 53926-4 0 9998 2 43614 93.0239 355.8793 0017200 27.6806 332.5359 15.37452090 39508 CP-7 DAVE 1 43615U 18070C 19150.07627709 .00001824 00000-0 49800-4 0 9999 2 43615 93.0241 355.5874 0017495 29.6531 330.5710 15.37375224 39391 ELFIN-B 1 43616U 18070D 19150.80739477 .00002704 00000-0 72324-4 0 9992 2 43616 93.0208 355.8060 0018306 30.3689 329.8621 15.37959889 39511 ELFIN-A 1 43617U 18070E 19150.80174585 .00002880 00000-0 76996-4 0 9990 2 43617 93.0262 356.0041 0017284 27.9782 332.2397 15.37995734 39511 STARS-Me Mother 1 43640U 98067PQ 19150.25183763 .00009395 00000-0 12830-3 0 9991 2 43640 51.6374 84.9793 0006039 32.7894 327.3472 15.58222739 36692 CubeBel 1 1 43666U 18083E 19150.76208451 .00000581 00000-0 32329-4 0 9991 2 43666 97.5207 175.3690 0013518 253.3615 195.1957 15.17539764 32416 Changshagaoxin 1 43669U 18083H 19150.84965584 .00000526 00000-0 30227-4 0 9994 2 43669 97.5073 174.8209 0009449 241.9594 118.0684 15.16759947 32379 Ten-Koh 1 43677U 18084G 19150.88819472 .00000012 00000-0 70814-5 0 9999 2 43677 97.8492 264.7431 0015669 349.6122 10.4769 14.90163135 31812 PO-101 1 43678U 18084H 19150.82182495 .00000403 00000-0 45842-4 0 9998 2 43678 97.8476 265.1509 0010329 13.9763 346.1745 14.91554553 31830 IRVINE 01 1 43693U 18088D 19149.88219401 .00001758 00000-0 76649-4 0 9994 2 43693 85.0338 331.2008 0016183 265.7098 94.2295 15.21296801 30354 QO-100 1 43700U 18090A 19150.18435701 .00000151 00000-0 00000 0 0 9993 2 43700 0.0164 332.8989 0002327 139.1078 227.5295 1.00270774 2093 Reaktor Hello World 1 43743U 18096AA 19150.83267347 .00000941 00000-0 38668-4 0 9990 2 43743 97.4604 220.8482 0019624 45.8058 90.7561 15.26566040 27856 MinXSS-2 1 43758U 18099A 19150.41563756 .00000732 00000-0 71370-4 0 9991 2 43758 97.7458 222.6949 0016488 37.2586 322.9776 14.95393402 26555 AO-95 1 43770U 18099N 19150.15572532 .00000475 00000-0 48944-4 0 9993 2 43770 97.7460 222.2732 0015648 44.2088 316.0380 14.94752757 26501 RANGE-B 1 43772U 18099Q 19150.14607411 .00000688 00000-0 68330-4 0 9996 2 43772 97.7512 222.3983 0014886 32.6414 327.5723 14.94854071 26495 RANGE-A 1 43773U 18099R 19149.74732443 .00000548 00000-0 55598-4 0 9992 2 43773 97.7407 221.7726 0014328 34.0148 326.1988 14.94792290 26434 MOVE-II 1 43780U 18099Y 19150.19342526 .00000339 00000-0 36184-4 0 9998 2 43780 97.7445 222.3415 0014482 42.6526 317.5817 14.95033634 26494 SNUSat 2 1 43782U 18099AA 19150.18806385 -.00000038 00000-0 17754-5 0 9997 2 43782 97.7453 222.3753 0013506 32.4557 327.7491 14.95037607 26504 SnugLite 1 43784U 18099AC 19150.17917077 -.00000127 00000-0 -63087-5 0 9999 2 43784 97.7420 222.3065 0016040 39.2222 321.0158 14.95117912 26512 ITASat 1 1 43786U 18099AE 19150.17734257 -.00000192 00000-0 -12180-4 0 9997 2 43786 97.7474 222.4325 0016143 38.0815 322.1543 14.95125679 26511 EAGLET 1 1 43790U 18099AJ 19150.19912933 .00000317 00000-0 33859-4 0 9996 2 43790 97.7461 222.5368 0014379 43.6439 316.5916 14.95499645 26218 ESEO 1 43792U 18099AL 19150.19665110 .00000094 00000-0 13711-4 0 9997 2 43792 97.7442 222.4999 0014170 40.6755 319.5521 14.95498278 26277 CSIM 1 43793U 18099AM 19150.18557020 .00000154 00000-0 18994-4 0 9992 2 43793 97.7403 222.3992 0013858 39.3859 320.8367 14.95668006 26247 Astrocast 0.1 1 43798U 18099AS 19150.17119961 -.00000207 00000-0 -13340-4 0 9995 2 43798 97.7452 222.5419 0013121 25.4865 334.7000 14.95727015 26501 JO-97 1 43803U 18099AX 19150.83298653 .00000147 00000-0 18561-4 0 9992 2 43803 97.7433 223.0104 0016131 37.1362 323.0971 14.95255202 26603 Suomi 100 1 43804U 18099AY 19150.16332159 .00000240 00000-0 27038-4 0 9992 2 43804 97.7431 222.3476 0016246 39.3746 320.8652 14.95255271 26510 Al Farabi 2 1 43805U 18099AZ 19150.82859234 .00000417 00000-0 43009-4 0 9996 2 43805 97.7434 223.0158 0016236 37.5891 322.6461 14.95308244 26617 PWSat 2 1 43814U 18099BJ 19150.27168646 .00014136 00000-0 11678-2 0 9993 2 43814 97.7744 223.1919 0006829 68.9411 291.2699 14.99053193 25943 CHOMPTT 1 43855U 18104G 19150.24099481 .00000595 00000-0 23889-4 0 9995 2 43855 85.0379 69.2967 0019978 33.0136 327.2348 15.22342729 25067 ISAT 1 43879U 18111D 19150.19469516 -.00000093 00000-0 -30903-5 0 9994 2 43879 97.7197 58.4826 0014686 88.9389 271.3514 14.95971803 21032 UWE-4 1 43880U 18111E 19150.70459089 .00000466 00000-0 46368-4 0 9990 2 43880 97.7210 59.0621 0014126 88.3936 271.8903 14.96217768 21111 Sparrow 1 43881U 18111F 19150.16496801 .00000765 00000-0 72743-4 0 9992 2 43881 97.7213 58.5480 0014270 89.1401 271.1455 14.96263524 21035 Lume 1 1 43908U 18111AJ 19150.69737559 .00000923 00000-0 40366-4 0 9990 2 43908 97.2917 56.4652 0023311 60.8000 299.5566 15.24292157 23558 FO-98 1 43933U 19003B 19150.74942625 .00000651 00000-0 31739-4 0 9999 2 43933 97.2827 208.9224 0018926 146.7552 330.5550 15.21600760 20171 FO-99 1 43937U 19003F 19150.90548494 .00001022 00000-0 45335-4 0 9997 2 43937 97.2784 209.3484 0025729 135.4953 278.9157 15.23518563 20224 Delphini 1 1 44030U 98067PW 19149.82912143 .00009898 00000-0 14527-3 0 9991 2 44030 051.6382 090.4053 0005710 072.9285 287.2331 15.56190908018453 MYSat 1 1 44045U 18092F 19150.31789109 .00002167 00000-0 74272-4 0 9993 2 44045 51.6418 104.7104 0012161 19.5894 340.5553 15.34840992 16263 AstroCast 0.2 1 44083U 19018F 19150.73259747 .00000426 00000-0 22089-4 0 9995 2 44083 97.4699 210.8656 0015683 76.9667 283.3318 15.21356725 9034 AISTechSat 3 1 44103U 19018AB 19150.75106456 .00000795 00000-0 37196-4 0 9992 2 44103 97.4577 210.8810 0015425 93.6785 266.6215 15.22591421 9030 AISat 1 1 44104U 19018AC 19150.77401537 .00000894 00000-0 31470-4 0 9992 2 44104 97.5109 211.9864 0060462 132.7623 227.8727 15.30427052 9114 /EX
